Home > Weather > Lubango > Past weeks

Flag for Angola Past Weather in Lubango, Angola — Yesterday and Last 2 Weeks

Now
79 °F

Scattered clouds.


Feels Like: 82 °F
Forecast: 45 / 75 °F
Wind: 9 mph from West

Location: Luanda Airport

Current Time: May 25, 2016 at 6:08:31 PM

Latest Report: May 25, 2016 at 5:00 PM


Visibility: N/A

Pressure: 29.86 "Hg (24.41 "Hg at 1765m altitude)

Humidity: 79%

Dew Point: 72 °F

Location of LubangoLocation

Past Weather in Lubango — Graph

°F

Lubango Temperature Yesterday

Maximum temperature yesterday: 81 °F (at 10:00 AM)
Minimum temperature yesterday: 72 °F (at 4:00 AM)
Average temperature yesterday: 76 °F

High & Low Weather Summary for the Past Weeks

 TemperatureHumidityPressure
High88 °F (May 12, 11:00 AM)94% (May 14, 12:00 AM)30.07 "Hg (May 14, 12:00 AM)
Low70 °F (May 18, 6:00 AM)58% (May 15, 1:00 PM)29.77 "Hg (May 12, 3:00 PM)
Average78 °F80%29.92 "Hg
* Reported May 10 4:00 PM — May 25 4:00 PM, Lubango, Weather by CustomWeather, © 2016

Note: Actual official high and low records may vary slightly from our data, if they occured in-between our weather recording intervals... More about our weather records

Advertising

Lubango Weather History for the Previous 24 Hours

Scroll right to see more
 ConditionsComfort  
Time TempWeatherWind HumidityBarometerVisibility
4:00 PM
Wed, May 25
81 °FScattered clouds.9 mph70%29.86 "HgN/A
3:00 PM81 °FSunny.9 mph70%29.89 "Hg10 mi
2:00 PM82 °FSunny.9 mph66%29.89 "Hg10 mi
1:00 PM82 °FPassing clouds.9 mph66%29.92 "HgN/A
12:00 PM81 °FScattered clouds.9 mph74%29.95 "HgN/A
11:00 AM82 °FScattered clouds.5 mph66%29.98 "HgN/A
10:00 AM81 °FScattered clouds.5 mph70%30.01 "HgN/A
9:00 AM79 °FPartly sunny.5 mph74%29.98 "HgN/A
8:00 AM75 °FPartly sunny.5 mph83%29.98 "HgN/A
7:00 AM73 °FBroken clouds.2 mph89%29.95 "HgN/A
6:00 AM73 °FPassing clouds.2 mph89%29.95 "HgN/A
5:00 AM73 °FPassing clouds.2 mph89%29.95 "HgN/A
4:00 AM73 °FPassing clouds.2 mph89%29.95 "HgN/A
3:00 AM73 °FClear.2 mph89%29.95 "Hg10 mi
2:00 AM73 °FClear.2 mph89%29.98 "Hg10 mi
10:00 PM
Tue, May 24
75 °FClear.5 mph83%29.98 "Hg10 mi
9:00 PM75 °FClear.5 mph83%29.98 "Hg10 mi
8:00 PM75 °FClear.9 mph83%29.95 "Hg10 mi
7:00 PM75 °FClear.5 mph83%29.92 "Hg10 mi
6:00 PM75 °FClear.9 mph78%29.92 "Hg10 mi
Weather by CustomWeather, © 2016

See weather overviewHow to use our weather pages